Weather History for Montauk, NY

Change the Weather History Date:

Thursday, February 27, 2014

  Actual Average (KHTO) Record (KHTO)
Temperature  
Mean Temperature 23 °F -  
Max Temperature 34 °F 41 °F 63 °F (1976)
Min Temperature 12 °F 25 °F 7 °F (1934)
Degree Days  
Heating Degree Days 42    
Moisture  
Dew Point 8 °F    
Average Humidity 49    
Maximum Humidity 82    
Minimum Humidity 35    
Precipitation  
Precipitation 0.02 in - - ()
Sea Level Pressure  
Sea Level Pressure 29.78 in    
Wind  
Wind Speed 9 mph (West)    
Max Wind Speed 22 mph    
Max Gust Speed 31 mph    
Averages and records for this station are not official NWS values.
T = Trace of Precipitation, MM = Missing Value Source: NWS Daily Summary

Daily Weather History Graph

Daily Weather History Graph

Search for Another Location

Airport:

Trip Planner

Search our weather history database for the weather conditions in past years. The results will help you decide how hot, cold, wet, or windy it might be!

Date:

Astronomy

Feb. 27, 2014 Rise Set
Actual Time 6:25 AM EST 5:36 PM EST
Civil Twilight 5:57 AM EST 6:04 PM EST
Nautical Twilight 5:25 AM EST 6:35 PM EST
Astronomical Twilight 4:53 AM EST 7:07 PM EST
Moon 4:56 AM EST 3:58 PM EST
Length of Visible Light 12h 06m
Length of Day
11h 11m
Waning Crescent, 4% of the Moon is Illuminated
Feb 27
Waning Crescent
Mar 1
New
Mar 8
First Quarter
Mar 16
Full
Mar 23
Last Quarter

Hourly Weather History & Observations

Time (EST) Temp. Windchill Dew Point Humidity Pressure Visibility Wind Dir Wind Speed Gust Speed Precip Events Conditions
12:54 AM 19.9 °F 7.9 °F -2.0 °F 38% 29.88 in - North 11.5 mph 19.6 mph N/A   Unknown
1:54 AM 19.9 °F 11.1 °F -2.9 °F 37% 29.88 in - North 6.9 mph - N/A   Unknown
2:54 AM 19.9 °F 11.1 °F -2.0 °F 38% 29.86 in - North 6.9 mph - N/A   Unknown
3:54 AM 19.0 °F 11.1 °F -0.0 °F 43% 29.83 in - NE 5.8 mph - N/A   Unknown
4:54 AM 18.0 °F - -0.9 °F 44% 29.82 in - Calm Calm - N/A   Unknown
5:54 AM 12.0 °F - -0.0 °F 59% 29.80 in - Calm Calm - N/A   Unknown
6:54 AM 15.1 °F - 1.0 °F 54% 29.78 in - Calm Calm - N/A   Unknown
7:54 AM 24.1 °F 19.7 °F 1.0 °F 37% 29.79 in - Variable 3.5 mph - N/A   Unknown
8:54 AM 27.0 °F 19.5 °F 9.0 °F 47% 29.77 in - Variable 6.9 mph - N/A   Unknown
9:54 AM 30.0 °F 23.2 °F 16.0 °F 56% 29.75 in - SSE 6.9 mph - N/A   Unknown
10:54 AM 30.9 °F 23.5 °F 19.0 °F 61% 29.71 in - South 8.1 mph 16.1 mph N/A   Unknown
11:54 AM 34.0 °F 26.6 °F 14.0 °F 44% 29.67 in - SSW 9.2 mph 21.9 mph N/A   Unknown
12:54 PM 33.1 °F 24.4 °F 16.0 °F 50% 29.63 in - SW 11.5 mph 20.7 mph N/A   Unknown
1:54 PM 32.0 °F 24.2 °F 21.9 °F 66% 29.62 in - WSW 9.2 mph 18.4 mph N/A   Unknown
2:54 PM 30.0 °F 19.5 °F 21.9 °F 72% 29.63 in - West 13.8 mph 20.7 mph N/A   Unknown
3:54 PM 28.9 °F 20.4 °F 24.1 °F 82% 29.64 in - West 9.2 mph - 0.02 in   Unknown
4:54 PM 30.9 °F 19.8 °F 18.0 °F 59% 29.66 in - West 16.1 mph 25.3 mph N/A   Unknown
5:54 PM 30.0 °F 17.9 °F 9.0 °F 41% 29.70 in - West 18.4 mph 29.9 mph N/A   Unknown
6:54 PM 28.9 °F 18.2 °F 7.0 °F 40% 29.76 in - West 13.8 mph 26.5 mph N/A   Unknown
7:54 PM 28.9 °F 19.2 °F 9.0 °F 43% 29.78 in - WSW 11.5 mph 19.6 mph N/A   Unknown
8:54 PM 28.0 °F 15.7 °F 10.0 °F 47% 29.83 in - West 17.3 mph 29.9 mph N/A   Unknown
9:54 PM 25.0 °F 10.2 °F 3.9 °F 41% 29.89 in - West 21.9 mph 31.1 mph N/A   Unknown
10:54 PM 21.9 °F 9.8 °F -2.0 °F 35% 29.94 in - West 12.7 mph 31.1 mph N/A   Unknown
11:54 PM 19.9 °F 5.7 °F -0.9 °F 40% 29.99 in - WNW 16.1 mph 28.8 mph N/A   Unknown